• în Republica Moldova
  • Lista ţărilor
  • Pe 7 zile
  • Temperatura apei
  • Hartă satelitară
  • Meteo pe hartă
  • Widget-uri
  • user-avatar
    Intrare

    Meteo pe oră la Kitzbuhel

    Astăzi, 25 Martie, Sâmbătă

    Timp Temperatura Precipitaţii Vânt Presiune Umiditate
    00:00 +3°C° 0 mm 1 m/s 681 mmHg 95%
    01:00 +1°C° 0 mm 1 m/s 680 mmHg 96%
    02:00 +1°C° 0 mm 1 m/s 680 mmHg 95%
    03:00 +1°C° 0 mm 1 m/s 680 mmHg 95%
    04:00 +2°C° 0 mm 1 m/s 680 mmHg 94%
    05:00 +3°C° 0 mm 1 m/s 680 mmHg 93%
    06:00 +4°C° 0 mm 1 m/s 680 mmHg 93%
    07:00 +5°C° 0 mm 1 m/s 681 mmHg 88%
    08:00 +7°C° 0 mm 1 m/s 681 mmHg 86%
    09:00 +8°C° 0 mm 1 m/s 681 mmHg 84%
    10:00 +9°C° 0 mm 2 m/s 681 mmHg 81%
    11:00 +9°C° 0 mm 2 m/s 681 mmHg 80%
    12:00 +10°C° 0 mm 2 m/s 680 mmHg 79%
    13:00 +10°C° 0 mm 2 m/s 680 mmHg 76%
    14:00 +10°C° 0 mm 2 m/s 680 mmHg 78%
    15:00 +10°C° 0 mm 2 m/s 679 mmHg 80%
    16:00 +10°C° 0 mm 2 m/s 679 mmHg 81%
    17:00 +8°C° 0 mm 2 m/s 678 mmHg 86%
    18:00 +6°C° 0 mm 2 m/s 678 mmHg 91%
    19:00 +5°C° 0 mm 1 m/s 677 mmHg 95%
    20:00 +5°C° 0 mm 1 m/s 677 mmHg 95%
    21:00 +5°C° 0 mm 1 m/s 677 mmHg 95%
    22:00 +4°C° 0 mm 1 m/s 677 mmHg 95%
    23:00 +4°C° 0 mm 1 m/s 677 mmHg 95%

    Mâine, 26 Martie, Duminică

    Timp Temperatura Precipitaţii Vânt Presiune Umiditate
    00:00 +3°C° 0 mm 1 m/s 677 mmHg 94%
    01:00 +3°C° 0 mm 1 m/s 676 mmHg 94%
    02:00 +2°C° 0 mm 1 m/s 676 mmHg 94%
    03:00 +1°C° 0 mm 1 m/s 676 mmHg 94%
    04:00 +1°C° 0 mm 1 m/s 675 mmHg 94%
    05:00 +1°C° 0 mm 1 m/s 675 mmHg 93%
    06:00 +2°C° 0 mm 1 m/s 676 mmHg 92%
    07:00 +3°C° 0 mm 1 m/s 676 mmHg 91%
    08:00 +3°C° 0 mm 2 m/s 677 mmHg 89%
    09:00 +5°C° 0 mm 2 m/s 677 mmHg 87%
    10:00 +5°C° 0 mm 3 m/s 677 mmHg 85%
    11:00 +5°C° 0,1 mm 3 m/s 678 mmHg 84%
    12:00 +5°C° 0,1 mm 3 m/s 678 mmHg 83%
    13:00 +7°C° 0,1 mm 3 m/s 678 mmHg 82%
    14:00 +5°C° 0 mm 3 m/s 678 mmHg 82%
    15:00 +5°C° 0 mm 3 m/s 678 mmHg 82%
    16:00 +5°C° 0 mm 3 m/s 678 mmHg 81%
    17:00 +5°C° 0 mm 2 m/s 678 mmHg 85%
    18:00 +3°C° 0 mm 2 m/s 679 mmHg 88%
    19:00 +3°C° 0 mm 1 m/s 679 mmHg 92%
    20:00 +2°C° 0 mm 1 m/s 679 mmHg 92%
    21:00 0°C° 0 mm 1 m/s 679 mmHg 93%
    22:00 -1°C° 0 mm 1 m/s 679 mmHg 93%
    23:00 -1°C° 0 mm 1 m/s 679 mmHg 93%

    Poimâine, 27 Martie, Luni

    Timp Temperatura Precipitaţii Vânt Presiune Umiditate
    00:00 -1°C° 0 mm 1 m/s 679 mmHg 92%
    01:00 -2°C° 0 mm 1 m/s 679 mmHg 92%
    02:00 -2°C° 0 mm 1 m/s 679 mmHg 91%
    03:00 -2°C° 0 mm 1 m/s 679 mmHg 89%
    04:00 -2°C° 0 mm 1 m/s 679 mmHg 88%
    05:00 -3°C° 0 mm 2 m/s 679 mmHg 84%
    06:00 -2°C° 0 mm 2 m/s 680 mmHg 80%
    07:00 -1°C° 0 mm 2 m/s 680 mmHg 76%
    08:00 +3°C° 0 mm 2 m/s 680 mmHg 69%
    09:00 +6°C° 0 mm 2 m/s 681 mmHg 62%
    10:00 +9°C° 0 mm 2 m/s 681 mmHg 56%
    11:00 +10°C° 0 mm 2 m/s 681 mmHg 54%
    12:00 +12°C° 0 mm 2 m/s 681 mmHg 52%
    13:00 +13°C° 0 mm 2 m/s 681 mmHg 50%
    14:00 +13°C° 0 mm 2 m/s 681 mmHg 53%
    15:00 +12°C° 0 mm 2 m/s 680 mmHg 55%
    16:00 +12°C° 0 mm 2 m/s 680 mmHg 58%
    17:00 +8°C° 0 mm 2 m/s 680 mmHg 66%
    18:00 +5°C° 0 mm 2 m/s 679 mmHg 75%
    19:00 +2°C° 0 mm 2 m/s 679 mmHg 83%
    20:00 +2°C° 0 mm 2 m/s 679 mmHg 81%
    21:00 +1°C° 0 mm 2 m/s 680 mmHg 80%
    22:00 +1°C° 0 mm 2 m/s 680 mmHg 78%
    23:00 +1°C° 0 mm 2 m/s 680 mmHg 77%

    28 Martie, Marţi

    Timp Temperatura Precipitaţii Vânt Presiune Umiditate
    00:00 +1°C° 0 mm 2 m/s 680 mmHg 76%
    01:00 +1°C° 0 mm 2 m/s 680 mmHg 76%
    02:00 +1°C° 0 mm 2 m/s 680 mmHg 75%
    03:00 -1°C° 0 mm 2 m/s 680 mmHg 74%
    04:00 -1°C° 0 mm 2 m/s 680 mmHg 73%
    05:00 +2°C° 0 mm 1 m/s 680 mmHg 72%
    06:00 +2°C° 0 mm 1 m/s 680 mmHg 70%
    07:00 +3°C° 0 mm 1 m/s 680 mmHg 69%
    08:00 +6°C° 0 mm 1 m/s 681 mmHg 66%
    09:00 +9°C° 0 mm 1 m/s 681 mmHg 64%
    10:00 +12°C° 0 mm 1 m/s 682 mmHg 61%
    11:00 +12°C° 0 mm 1 m/s 682 mmHg 61%
    12:00 +13°C° 0 mm 1 m/s 682 mmHg 61%
    13:00 +13°C° 0 mm 1 m/s 682 mmHg 61%
    14:00 +13°C° 0 mm 1 m/s 682 mmHg 64%
    15:00 +13°C° 0 mm 1 m/s 681 mmHg 67%
    16:00 +13°C° 0 mm 1 m/s 681 mmHg 70%
    17:00 +10°C° 0 mm 1 m/s 681 mmHg 78%
    18:00 +7°C° 0 mm 1 m/s 680 mmHg 86%
    19:00 +3°C° 0 mm 0 m/s 679 mmHg 94%
    20:00 +3°C° 0 mm 1 m/s 680 mmHg 95%
    21:00 +3°C° 0 mm 1 m/s 680 mmHg 95%
    22:00 +3°C° 0 mm 1 m/s 680 mmHg 96%
    23:00 +3°C° 0 mm 1 m/s 680 mmHg 95%

    29 Martie, Miercuri

    Timp Temperatura Precipitaţii Vânt Presiune Umiditate
    00:00 +3°C° 0 mm 1 m/s 680 mmHg 95%
    01:00 +3°C° 0 mm 1 m/s 680 mmHg 95%
    02:00 +3°C° 0 mm 1 m/s 680 mmHg 95%
    03:00 +3°C° 0 mm 1 m/s 680 mmHg 95%
    04:00 +3°C° 0 mm 1 m/s 680 mmHg 95%
    05:00 +4°C° 0 mm 1 m/s 681 mmHg 94%
    06:00 +5°C° 0 mm 1 m/s 681 mmHg 94%
    07:00 +6°C° 0 mm 1 m/s 682 mmHg 93%
    08:00 +8°C° 0 mm 1 m/s 682 mmHg 85%
    09:00 +10°C° 0 mm 1 m/s 682 mmHg 77%
    10:00 +12°C° 0 mm 1 m/s 683 mmHg 70%
    11:00 +13°C° 0 mm 1 m/s 682 mmHg 67%
    12:00 +14°C° 0 mm 1 m/s 682 mmHg 64%
    13:00 +14°C° 0 mm 1 m/s 682 mmHg 62%
    14:00 +14°C° 0 mm 1 m/s 682 mmHg 64%
    15:00 +14°C° 0 mm 1 m/s 682 mmHg 66%
    16:00 +14°C° 0 mm 1 m/s 681 mmHg 68%
    17:00 +11°C° 0 mm 1 m/s 681 mmHg 76%
    18:00 +8°C° 0 mm 1 m/s 680 mmHg 85%
    19:00 +5°C° 0 mm 1 m/s 679 mmHg 94%
    20:00 +5°C° 0 mm 1 m/s 679 mmHg 94%
    21:00 +3°C° 0 mm 0 m/s 680 mmHg 95%
    22:00 +3°C° 0 mm 0 m/s 680 mmHg 95%
    23:00 +3°C° 0 mm 0 m/s 680 mmHg 95%

    30 Martie, Joi

    Timp Temperatura Precipitaţii Vânt Presiune Umiditate
    00:00 +3°C° 0 mm 0 m/s 680 mmHg 95%
    01:00 +3°C° 0 mm 0 m/s 680 mmHg 94%
    02:00 +2°C° 0 mm 0 m/s 680 mmHg 94%
    03:00 +3°C° 0 mm 1 m/s 680 mmHg 93%
    04:00 +3°C° 0 mm 1 m/s 679 mmHg 93%
    05:00 +4°C° 0 mm 1 m/s 680 mmHg 91%
    06:00 +5°C° 0 mm 1 m/s 680 mmHg 88%
    07:00 +6°C° 0 mm 1 m/s 681 mmHg 86%
    08:00 +9°C° 0 mm 1 m/s 681 mmHg 78%
    09:00 +11°C° 0 mm 1 m/s 681 mmHg 70%
    10:00 +13°C° 0 mm 1 m/s 682 mmHg 62%
    11:00 +14°C° 0 mm 1 m/s 681 mmHg 59%
    12:00 +15°C° 0 mm 2 m/s 681 mmHg 56%
    13:00 +16°C° 0 mm 2 m/s 681 mmHg 53%
    14:00 +16°C° 0 mm 2 m/s 681 mmHg 55%
    15:00 +16°C° 0 mm 2 m/s 680 mmHg 57%
    16:00 +15°C° 0 mm 2 m/s 680 mmHg 59%
    17:00 +13°C° 0 mm 2 m/s 679 mmHg 70%
    18:00 +9°C° 0 mm 2 m/s 679 mmHg 80%
    19:00 +6°C° 0 mm 2 m/s 678 mmHg 90%
    20:00 +6°C° 0 mm 2 m/s 678 mmHg 89%
    21:00 +6°C° 0 mm 2 m/s 679 mmHg 88%
    22:00 +5°C° 0 mm 2 m/s 679 mmHg 87%
    23:00 +5°C° 0 mm 2 m/s 679 mmHg 87%
    Arată mai mult